LBBG

Burgas Airport

Airport
ICAO code
LBBG
IATA Code
BOJ
Summary
ICAO Region
EUR
ICAO Territory
Location

Sarafovo, Northern Thrace

Serving
Burgas
Elevation
135 ft
Coordinates
42° 34' 10" N , 27° 30' 55" E
KCC
Metar
Observation
LBBG 270400Z AUTO 08014KT 9000 DZ SCT011/// SCT016/// OVC018/// 09/08 Q1008 NOSIG
Station
Burgas
Date/Time
2023-01-27 04:00:00
Wind direction
80°
Wind speed
14 kts
Lowest cloud amount
scattered clouds
Temperature
9°C
Dew point
8°C
Humidity
93%
QNH
1008 hPa
Weather condition
n/a

Burgas Airport is an international airport in southeast Bulgaria and the second largest airport in the country. The airport is located near the northern neighbourhood of Sarafovo 10 kilometres from the city centre of Burgas.

Climatology

Humid subtropical climate (Köppen climate classification Cfa)

Runways

Designator Length Width Surface Rops
4/22 3200 45 CON Yes/Yes

Airport map

Aerial View

SKYbrary Partners:

Safety knowledge contributed by: